Location: *
(37.5724°S, 58.0067°E)
Time: 11:42:34
(UTC+00:00)

CZ-4 R/B - Pass Details

Date: 26 September 2020
Orbit: 530 x 600 km, 97.7° (Epoch: 29 October)

Event Time Altitude Azimuth Distance (km) Brightness Sun altitude
Rises 15:12:08 0° 163° (SSE) 2,835 4.9 -13.4°
Reaches altitude 10° 15:14:21 10° 158° (SSE) 1,937 4.0 -13.8°
Maximum altitude 15:18:28 53° 80° (E) 742 1.6 -14.6°
Drops below altitude 10° 15:22:35 10° 3° (N) 1,937 3.9 -15.4°
Sets 15:24:48 0° 358° (N) 2,835 4.8 -15.8°
